Weather History for Crestview, FL

Change the Weather History Date:

Wednesday, December 5, 2012

  Actual Average Record
Temperature  
Mean Temperature 62 °F -  
Max Temperature 73 °F 66 °F 81 °F (2013)
Min Temperature 50 °F 36 °F 24 °F (2000)
Degree Days  
Heating Degree Days 4    
Growing Degree Days 12 (Base 50)    
Moisture  
Dew Point 54 °F    
Average Humidity 87    
Maximum Humidity 100    
Minimum Humidity 59    
Precipitation  
Precipitation 0.00 in - - ()
Sea Level Pressure  
Sea Level Pressure 30.14 in    
Wind  
Wind Speed 1 mph (ESE)    
Max Wind Speed 6 mph    
Max Gust Speed -    
Visibility 6 miles    
Events Fog    
Averages and records for this station are not official NWS values.
T = Trace of Precipitation, MM = Missing Value Source: NWS Daily Summary

Daily Weather History Graph

Daily Weather History Graph

Search for Another Location

Airport:

Trip Planner

Search our weather history database for the weather conditions in past years. The results will help you decide how hot, cold, wet, or windy it might be!

Date:

Astronomy

Dec. 05, 2012 Rise Set
Actual Time 6:29 AM CST 4:44 PM CST
Civil Twilight 6:03 AM CST 5:10 PM CST
Nautical Twilight 5:33 AM CST 5:40 PM CST
Astronomical Twilight 5:03 AM CST 6:09 PM CST
Moon 11:12 PM CST (12/5) 11:10 AM CST (12/5)
Length of Visible Light 11h 07m
Length of Day
10h 14m
Waning Gibbous, 59% of the Moon is Illuminated
Dec 5
Waning Gibbous
Dec 6
Last Quarter
Dec 13
New
Dec 19
First Quarter
Dec 28
Full

Hourly Weather History & Observations

Time (CST) Temp. Dew Point Humidity Pressure Visibility Wind Dir Wind Speed Gust Speed Precip Events Conditions
12:53 AM 55.9 °F 54.0 °F 93% 30.19 in 0.2 mi Calm Calm - N/A Fog Fog
1:53 AM 53.1 °F 52.0 °F 96% 30.19 in 0.5 mi Calm Calm - N/A Fog Fog
2:53 AM 52.0 °F 50.0 °F 93% 30.18 in 0.2 mi Calm Calm - N/A Fog Fog
3:53 AM 50.0 °F 48.9 °F 96% 30.17 in 0.5 mi Calm Calm - N/A Fog Fog
4:53 AM 50.0 °F 48.9 °F 96% 30.19 in 0.2 mi Calm Calm - N/A Fog Fog
5:24 AM 51.8 °F 51.8 °F 100% 30.20 in 1.0 mi Calm Calm - N/A   Mist
5:53 AM 51.1 °F 50.0 °F 96% 30.19 in 0.8 mi ENE 3.5 mph - N/A   Mist
6:00 AM 51.8 °F 50.0 °F 94% 30.20 in 0.5 mi ENE 4.6 mph - N/A Fog Fog
6:07 AM 51.8 °F 48.2 °F 88% 30.20 in 1.0 mi ENE 4.6 mph - N/A   Mist
6:16 AM 51.8 °F 48.2 °F 88% 30.19 in 3.0 mi ENE 3.5 mph - N/A   Mostly Cloudy
6:31 AM 51.8 °F 50.0 °F 94% 30.20 in 5.0 mi Calm Calm - N/A   Scattered Clouds
6:53 AM 52.0 °F 50.0 °F 93% 30.20 in 7.0 mi NE 3.5 mph - N/A   Clear
8:53 AM 62.1 °F 57.0 °F 84% 30.21 in 10.0 mi Calm Calm - N/A   Clear
9:53 AM 68.0 °F 60.1 °F 76% 30.21 in 10.0 mi Calm Calm - N/A   Clear
10:53 AM 71.1 °F 60.1 °F 68% 30.19 in 10.0 mi SE 4.6 mph - N/A   Clear
11:53 AM 73.9 °F 60.1 °F 62% 30.14 in 10.0 mi South 4.6 mph - N/A   Partly Cloudy
12:53 PM 73.0 °F 59.0 °F 61% 30.11 in 10.0 mi SSE 5.8 mph - N/A   Mostly Cloudy
1:53 PM 73.0 °F 57.9 °F 59% 30.09 in 10.0 mi SE 3.5 mph - N/A   Clear
2:53 PM 73.0 °F 57.9 °F 59% 30.09 in 10.0 mi SSE 3.5 mph - N/A   Clear
3:53 PM 72.0 °F 57.9 °F 61% 30.08 in 10.0 mi Calm Calm - N/A   Clear
4:53 PM 64.0 °F 60.1 °F 87% 30.09 in 10.0 mi Calm Calm - N/A   Clear
5:53 PM 61.0 °F 57.9 °F 90% 30.10 in 10.0 mi Calm Calm - N/A   Clear
6:53 PM 60.1 °F 57.0 °F 90% 30.10 in 10.0 mi Calm Calm - N/A   Clear
7:53 PM 57.9 °F 55.9 °F 93% 30.10 in 9.0 mi Calm Calm - N/A   Clear
8:39 PM 55.4 °F 53.6 °F 94% 30.11 in 1.8 mi Calm Calm - N/A   Clear
8:48 PM 55.4 °F 53.6 °F 94% 30.10 in 4.0 mi Calm Calm - N/A   Clear
8:53 PM 55.9 °F 54.0 °F 93% 30.10 in 10.0 mi Calm Calm - N/A   Clear
9:53 PM 55.0 °F 54.0 °F 96% 30.10 in 10.0 mi Calm Calm - N/A   Clear
10:53 PM 53.1 °F 51.1 °F 93% 30.10 in 8.0 mi Calm Calm - N/A   Clear
11:27 PM 53.6 °F 51.8 °F 94% 30.10 in 1.8 mi Calm Calm - N/A   Scattered Clouds
11:29 PM 51.8 °F 51.8 °F 100% 30.09 in 2.0 mi Calm Calm - N/A   Scattered Clouds
11:37 PM 51.8 °F 50.0 °F 94% 30.09 in 5.0 mi Calm Calm - N/A   Scattered Clouds
11:53 PM 52.0 °F 50.0 °F 93% 30.09 in 9.0 mi Calm Calm - N/A   Mostly Cloudy